Location: Nebula Knoll Observatory
(43.6666°N, 71.0000°W)
Time: 05:30:04
(UTC-05:00)

Cosmos 1782 - Visible Passes

Search period start: 27 November 2014 00:00
Search period end: 07 December 2014 00:00
Orbit: 549 x 562 km, 82.5° (Epoch: 26 November)

Date Brightness Start Highest point End Pass type
(mag) Time Alt. Az. Time Alt. Az. Time Alt. Az.
27 Nov 5.6 17:13:20 10° WSW 17:16:12 18° WNW 17:19:05 10° NNW visible
28 Nov 5.7 17:11:01 10° WSW 17:13:37 16° WNW 17:16:14 10° NNW visible
29 Nov 5.7 17:08:45 10° WSW 17:11:02 15° WNW 17:13:19 10° NW visible
30 Nov 5.8 17:06:33 10° W 17:08:26 13° WNW 17:10:20 10° NW visible
01 Dec 5.9 17:04:31 10° W 17:05:51 11° WNW 17:07:11 10° NW visible
